SQ5DCP-1 Weather Reports


time (UTC)temp
C
wind
direction
speed
KPH
gust
KPH
rain 1hr
cm
rain 24hr
cm
rain mn
cm
humidity
%
barometer
mb
20260905044035 16 280 16.1 33.8 0.00 0.20 0.10 81 1011.2
20260905043534 16 291 16.1 33.8 0.00 0.20 0.10 81 1011.2
20260905043031 16 277 14.5 33.8 0.00 0.20 0.10 81 1011.2
20260905042529 16 290 14.5 25.7 0.00 0.20 0.10 82 1011.0
20260905042028 16 286 11.3 25.7 0.00 0.20 0.10 82 1010.9
20260905041525 16 276 11.3 29.0 0.00 0.20 0.10 82 1010.9
20260905041024 16 275 12.9 29.0 0.00 0.20 0.10 82 1010.8
20260905040522 16 277 11.3 22.5 0.00 0.20 0.10 82 1010.7
20260905040020 16 275 11.3 24.1 0.00 0.20 0.10 82 1010.6
20260905035518 16 287 11.3 27.4 0.00 0.20 0.10 83 1010.5
20260905035047 16 289 12.9 24.1 0.00 0.20 0.10 83 1010.3
20260905035016 16 289 12.9 24.1 0.00 0.20 0.10 83 1010.3
20260905034534 16 299 9.7 33.8 0.00 0.20 0.10 83 1010.4
20260905034033 16 288 12.9 22.5 0.00 0.20 0.10 83 1010.3
20260905033531 16 276 11.3 30.6 0.00 0.20 0.10 84 1010.5
20260905033029 16 287 9.7 35.4 0.00 0.20 0.10 84 1010.3
20260905032527 16 283 12.9 29.0 0.00 0.20 0.10 84 1010.5
20260905032025 16 284 12.9 35.4 0.00 0.20 0.10 84 1010.2
20260905031523 16 280 14.5 33.8 0.00 0.20 0.10 84 1010.1
20260905031021 16 277 11.3 33.8 0.00 0.20 0.10 84 1010.0
20260905030519 16 282 11.3 27.4 0.00 0.20 0.10 84 1010.1
20260905030018 16 283 11.3 20.9 0.00 0.20 0.10 84 1010.0
20260905025515 16 267 16.1 37.0 0.03 0.20 0.10 84 1009.9
20260905025034 16 274 11.3 27.4 0.03 0.20 0.10 84 1009.9
20260905024532 16 300 11.3 24.1 0.03 0.20 0.10 84 1009.9
20260905024030 16 299 12.9 29.0 0.03 0.20 0.10 84 1009.9
20260905023528 16 283 12.9 33.8 0.00 0.18 0.10 84 1010.0
20260905023026 16 277 14.5 27.4 0.00 0.18 0.10 84 1009.9
20260905022525 16 288 11.3 27.4 0.00 0.18 0.10 84 1010.0
20260905022022 16 275 11.3 29.0 0.00 0.18 0.10 84 1010.1
20260905021521 16 292 9.7 17.7 0.00 0.18 0.10 84 1009.8
20260905021111 16 273 11.3 24.1 0.00 0.18 0.10 83 1009.3
20260905021019 16 273 11.3 24.1 0.00 0.18 0.10 83 1009.3
20260905020517 16 281 11.3 24.1 0.00 0.18 0.10 83 1009.2
20260905020035 16 282 11.3 25.7 0.00 0.18 0.10 83 1009.4
20260905015533 16 287 12.9 24.1 0.00 0.18 0.08 83 1009.5
20260905015031 16 287 11.3 25.7 0.00 0.18 0.08 83 1009.6
20260905014529 16 272 14.5 33.8 0.03 0.18 0.08 83 1009.7
20260905014028 16 284 12.9 29.0 0.03 0.18 0.08 82 1009.7
20260905013526 16 290 11.3 25.7 0.03 0.18 0.08 82 1009.8
20260905013024 16 279 9.7 25.7 0.03 0.18 0.08 82 1009.8
20260905012522 16 282 14.5 27.4 0.03 0.18 0.08 81 1009.5
20260905012020 16 282 12.9 25.7 0.03 0.18 0.08 80 1009.1
20260905011518 16 271 12.9 38.6 0.03 0.18 0.08 80 1008.9
20260905011049 16 305 12.9 27.4 0.03 0.18 0.08 80 1009.2
20260905011017 16 305 12.9 27.4 0.03 0.18 0.08 80 1009.2
20260905010534 17 288 16.1 37.0 0.05 0.18 0.08 80 1009.4
20260905010033 17 289 11.3 25.7 0.05 0.18 0.08 80 1009.3
20260905005531 17 275 12.9 33.8 0.08 0.18 0.08 80 1009.5
20260905005029 17 285 9.7 29.0 0.08 0.18 0.08 80 1009.0
20260905004527 17 277 8.0 17.7 0.05 0.15 0.05 79 1008.9
20260905004025 17 277 11.3 27.4 0.05 0.15 0.05 80 1008.8
20260905003523 17 283 9.7 20.9 0.05 0.15 0.05 80 1008.7
20260905003021 17 276 11.3 25.7 0.05 0.15 0.05 80 1008.8
20260905002519 17 288 11.3 24.1 0.05 0.15 0.05 80 1008.6
20260905002018 17 270 14.5 35.4 0.05 0.15 0.05 80 1008.5
20260905001515 17 291 14.5 33.8 0.05 0.15 0.05 80 1008.6
20260905001034 18 268 14.5 33.8 0.05 0.15 0.05 80 1008.7
20260905000532 18 285 12.9 25.7 0.03 0.13 0.03 79 1008.7
20260905000030 18 286 16.1 29.0 0.00 0.13 0.03 78 1008.6
20260904235528 18 258 16.1 35.4 0.00 0.10 0.00 78 1008.1
20260904235027 18 270 11.3 33.8 0.00 0.10 0.00 79 1007.7
20260904234524 18 272 9.7 29.0 0.00 0.10 0.00 79 1007.3
20260904234023 18 280 9.7 27.4 0.00 0.10 0.00 80 1007.2
20260904233521 18 267 8.0 22.5 0.00 0.10 0.00 80 1007.4
20260904233019 18 262 12.9 29.0 0.00 0.10 0.00 80 1007.5
20260904232517 18 277 9.7 22.5 0.00 0.10 0.00 80 1007.9
20260904232035 18 281 9.7 22.5 0.00 0.10 0.00 79 1007.8
20260904231533 18 262 6.4 12.9 0.00 0.10 0.00 79 1007.5
20260904231031 18 265 4.8 12.9 0.00 0.10 0.00 78 1007.6
20260904230530 18 270 4.8 11.3 0.00 0.10 0.00 78 1007.6
20260904230027 18 252 4.8 14.5 0.00 0.10 0.00 78 1007.3
20260904225525 18 265 3.2 9.7 0.00 0.10 0.00 78 1007.4
20260904225024 18 267 3.2 4.8 0.00 0.10 0.00 78 1007.4
20260904224522 18 289 3.2 9.7 0.00 0.10 0.00 78 1007.4
20260904224020 18 279 4.8 14.5 0.00 0.10 0.00 78 1007.3
20260904223518 18 287 4.8 12.9 0.00 0.10 0.00 79 1007.4
20260904223016 19 283 4.8 17.7 0.00 0.10 0.00 79 1007.3
20260904222534 18 288 3.2 6.4 0.00 0.10 0.00 79 1007.3
20260904222032 19 287 6.4 16.1 0.00 0.10 0.00 80 1007.5
20260904221531 19 282 4.8 12.9 0.00 0.10 0.00 80 1007.5
20260904221029 19 277 8.0 20.9 0.05 0.10 0.00 81 1007.7
20260904220527 19 283 8.0 16.1 0.08 0.10 0.00 81 1007.9
20260904220025 19 294 9.7 22.5 0.08 0.10 0.10 81 1008.1
20260904215523 19 276 11.3 22.5 0.08 0.10 0.10 81 1008.2
20260904215022 19 279 9.7 17.7 0.08 0.10 0.10 81 1007.7
20260904214519 19 280 9.7 24.1 0.08 0.10 0.10 80 1007.7
20260904214017 20 285 9.7 20.9 0.08 0.10 0.10 80 1007.6
20260904213516 20 279 11.3 24.1 0.10 0.10 0.10 80 1007.6
20260904213034 20 284 11.3 24.1 0.10 0.10 0.10 80 1007.7
20260904212532 20 276 11.3 30.6 0.10 0.10 0.10 79 1007.7
20260904212030 20 288 11.3 24.1 0.10 0.10 0.10 79 1007.9
20260904211528 21 296 11.3 30.6 0.10 0.10 0.10 77 1007.9
20260904211026 21 293 16.1 38.6 0.05 0.05 0.05 74 1008.0
20260904210524 21 293 19.3 43.5 0.03 0.03 0.03 72 1007.9
20260904210022 22 299 24.1 51.5 0.03 0.03 0.03 68 1007.6
20260904205520 22 285 19.3 82.1 0.03 0.03 0.03 67 1006.9
20260904205019 22 286 9.7 24.1 0.03 0.03 0.03 67 1006.3
20260904204516 22 244 6.4 20.9 0.03 0.03 0.03 67 1005.9
20260904204035 22 260 6.4 14.5 0.03 0.03 0.03 66 1005.8
20260904203533 23 258 11.3 27.4 0.00 0.00 0.00 63 1005.9
20260904203030 22 223 11.3 22.5 0.00 0.00 0.00 62 1006.0
20260904202529 22 233 9.7 25.7 0.00 0.00 0.00 62 1006.0
20260904202026 22 249 11.3 27.4 0.00 0.00 0.00 62 1006.0
20260904201524 22 237 9.7 17.7 0.00 0.00 0.00 62 1006.1
20260904201022 22 240 9.7 22.5 0.00 0.00 0.00 62 1006.1
20260904200520 22 246 11.3 25.7 0.00 0.00 0.00 62 1006.2
20260904200018 22 252 9.7 17.7 0.00 0.00 0.00 62 1006.3
20260904195516 22 244 11.3 22.5 0.00 0.00 0.00 63 1006.3
20260904195034 22 248 9.7 22.5 0.00 0.00 0.00 63 1006.4
20260904194532 22 252 9.7 24.1 0.00 0.00 0.00 63 1006.6
20260904194030 22 260 12.9 27.4 0.00 0.00 0.00 63 1006.7
20260904193528 22 250 9.7 22.5 0.00 0.00 0.00 63 1006.7
20260904193026 22 243 8.0 22.5 0.00 0.00 0.00 63 1006.7
20260904192524 22 245 11.3 24.1 0.00 0.00 0.00 63 1006.7
20260904192022 22 216 9.7 30.6 0.00 0.00 0.00 64 1006.8
20260904191520 22 242 11.3 25.7 0.00 0.00 0.00 64 1006.9
20260904191018 22 224 9.7 22.5 0.00 0.00 0.00 64 1006.9
20260904190516 22 234 9.7 24.1 0.00 0.00 0.00 64 1007.0
20260904190034 22 235 9.7 24.1 0.00 0.00 0.00 64 1007.2
20260904185533 22 236 9.7 22.5 0.00 0.00 0.00 64 1007.1
20260904185031 22 234 9.7 35.4 0.00 0.00 0.00 64 1007.3
20260904184528 22 234 11.3 30.6 0.00 0.00 0.00 64 1007.4
20260904184026 22 235 9.7 20.9 0.00 0.00 0.00 65 1007.4
20260904183524 22 233 9.7 24.1 0.00 0.00 0.00 65 1007.5
20260904183022 22 249 8.0 16.1 0.00 0.00 0.00 65 1007.6
20260904182521 22 221 8.0 17.7 0.00 0.00 0.00 65 1007.7
20260904182018 22 223 8.0 16.1 0.00 0.00 0.00 65 1007.7
20260904181517 22 208 6.4 14.5 0.00 0.00 0.00 65 1007.8
20260904181035 22 222 6.4 14.5 0.00 0.00 0.00 65 1007.8
20260904180533 22 219 4.8 12.9 0.00 0.00 0.00 65 1008.0
20260904180031 22 240 8.0 16.1 0.00 0.00 0.00 65 1008.1
20260904175529 22 218 8.0 14.5 0.00 0.00 0.00 65 1008.1
20260904175027 22 221 6.4 14.5 0.00 0.00 0.00 65 1008.0
20260904174525 22 223 6.4 11.3 0.00 0.00 0.00 65 1008.0
20260904174022 22 221 6.4 11.3 0.00 0.00 0.00 65 1008.2
20260904173520 22 212 4.8 12.9 0.00 0.00 0.00 64 1008.3
20260904173018 22 245 6.4 16.1 0.00 0.00 0.00 64 1008.3
20260904172516 22 227 4.8 11.3 0.00 0.00 0.00 64 1008.4
20260904172035 22 234 4.8 12.9 0.00 0.00 0.00 64 1008.3
20260904171532 22 243 4.8 12.9 0.00 0.00 0.00 64 1008.5
20260904171029 22 243 4.8 14.5 0.00 0.00 0.00 64 1008.5
20260904170528 22 243 4.8 14.5 0.00 0.00 0.00 64 1008.5
20260904170025 22 237 6.4 20.9 0.00 0.00 0.00 63 1008.4
20260904165523 22 230 6.4 11.3 0.00 0.00 0.00 63 1008.4
20260904165022 22 264 6.4 12.9 0.00 0.00 0.00 63 1008.4
20260904164520 22 237 8.0 14.5 0.00 0.00 0.00 63 1008.3
20260904164017 22 227 8.0 22.5 0.00 0.00 0.00 63 1008.4
20260904163535 22 239 6.4 16.1 0.00 0.00 0.00 63 1008.6
20260904163032 22 237 8.0 20.9 0.00 0.00 0.00 62 1008.6
20260904162530 22 240 8.0 17.7 0.00 0.00 0.00 62 1008.5
20260904162028 22 230 8.0 24.1 0.00 0.00 0.00 62 1008.5
20260904161526 22 256 9.7 20.9 0.00 0.00 0.00 62 1008.7
20260904161024 22 243 8.0 22.5 0.00 0.00 0.00 62 1008.8
20260904160522 22 227 8.0 16.1 0.00 0.00 0.00 62 1008.8
20260904160020 22 222 8.0 16.1 0.00 0.00 0.00 62 1009.0
20260904155518 22 241 6.4 16.1 0.00 0.00 0.00 62 1009.0
20260904155016 22 232 6.4 20.9 0.00 0.00 0.00 62 1009.1
20260904154535 22 235 6.4 17.7 0.00 0.00 0.00 61 1009.1
20260904154033 22 233 6.4 12.9 0.00 0.00 0.00 61 1009.3
20260904153531 22 241 8.0 14.5 0.00 0.00 0.00 61 1009.3
20260904153029 22 257 8.0 17.7 0.00 0.00 0.00 61 1009.5
20260904152527 22 249 8.0 20.9 0.00 0.00 0.00 61 1009.6
20260904152025 22 242 4.8 11.3 0.00 0.00 0.00 61 1009.6
20260904151523 22 255 6.4 20.9 0.00 0.00 0.00 61 1009.7
20260904151021 22 246 9.7 16.1 0.00 0.00 0.00 61 1009.8
20260904150519 22 225 9.7 24.1 0.00 0.00 0.00 61 1009.8
20260904150017 22 253 8.0 20.9 0.00 0.00 0.00 61 1009.9
20260904145535 22 236 9.7 17.7 0.00 0.00 0.00 60 1010.0
20260904145033 22 242 9.7 20.9 0.00 0.00 0.00 60 1010.1
20260904144530 22 241 8.0 22.5 0.00 0.00 0.00 59 1010.1
20260904144028 22 263 9.7 22.5 0.00 0.00 0.00 59 1010.1
20260904143526 22 282 9.7 24.1 0.00 0.00 0.00 59 1010.2
20260904143024 22 268 8.0 17.7 0.00 0.00 0.00 59 1010.3
20260904142522 22 275 11.3 25.7 0.00 0.00 0.00 59 1010.4
20260904142020 22 266 9.7 17.7 0.00 0.00 0.00 59 1010.6
20260904141518 22 269 12.9 25.7 0.00 0.00 0.00 59 1010.7
20260904141048 22 287 11.3 27.4 0.00 0.00 0.00 58 1010.7
20260904141016 22 287 11.3 27.4 0.00 0.00 0.00 58 1010.7
20260904140535 22 281 12.9 27.4 0.00 0.00 0.00 58 1010.7
20260904140033 22 269 12.9 25.7 0.00 0.00 0.00 58 1010.8
20260904135531 22 278 11.3 25.7 0.00 0.00 0.00 58 1010.9
20260904135029 22 281 16.1 33.8 0.00 0.00 0.00 58 1011.0
20260904134527 22 252 9.7 24.1 0.00 0.00 0.00 59 1011.0
20260904134025 22 246 8.0 24.1 0.00 0.00 0.00 60 1011.0
20260904133523 22 259 8.0 17.7 0.00 0.00 0.00 60 1010.8
20260904133022 22 273 9.7 20.9 0.00 0.00 0.00 60 1011.1
20260904132520 22 284 11.3 22.5 0.00 0.00 0.00 60 1011.3
20260904132017 22 256 12.9 24.1 0.00 0.00 0.00 60 1011.3
20260904131516 22 270 9.7 24.1 0.00 0.00 0.00 60 1011.3
20260904131034 22 250 9.7 22.5 0.00 0.00 0.00 60 1011.5
20260904130532 22 285 11.3 20.9 0.00 0.00 0.00 60 1011.8
20260904130030 22 265 11.3 25.7 0.00 0.00 0.00 60 1011.7
20260904125528 22 261 8.0 22.5 0.00 0.00 0.00 59 1011.7
20260904125027 22 274 11.3 24.1 0.00 0.00 0.00 59 1011.7
20260904124525 22 284 12.9 29.0 0.00 0.00 0.00 59 1011.7
20260904124023 22 273 14.5 30.6 0.00 0.00 0.00 60 1011.8
20260904123521 22 275 12.9 30.6 0.00 0.00 0.00 60 1012.1
20260904123019 22 268 11.3 29.0 0.00 0.00 0.00 61 1012.2
20260904122517 22 289 8.0 17.7 0.00 0.00 0.00 61 1012.4
20260904122035 22 267 8.0 16.1 0.00 0.00 0.00 60 1012.5
20260904121534 22 256 11.3 25.7 0.00 0.00 0.00 60 1012.4
20260904121031 22 262 14.5 35.4 0.00 0.00 0.00 60 1012.4
20260904120530 22 282 12.9 30.6 0.00 0.00 0.00 60 1012.5
20260904120028 22 291 14.5 24.1 0.00 0.00 0.00 60 1012.5
20260904115526 22 278 14.5 29.0 0.00 0.00 0.00 61 1012.5
20260904115024 21 289 11.3 29.0 0.00 0.00 0.00 62 1012.5
20260904114522 21 279 11.3 27.4 0.00 0.00 0.00 63 1012.6
20260904114020 21 258 11.3 25.7 0.00 0.00 0.00 62 1012.7
20260904113518 21 273 9.7 24.1 0.00 0.00 0.00 63 1012.7
20260904113049 21 284 11.3 27.4 0.00 0.00 0.00 63 1012.9
20260904113016 21 284 11.3 27.4 0.00 0.00 0.00 63 1012.9
20260904112534 21 247 12.9 25.7 0.00 0.00 0.00 63 1013.1
20260904112032 21 279 12.9 30.6 0.00 0.00 0.00 63 1013.2
20260904111531 21 278 12.9 25.7 0.00 0.00 0.00 63 1013.2
20260904111029 21 274 9.7 22.5 0.00 0.00 0.00 64 1013.3
20260904110527 21 277 11.3 33.8 0.00 0.00 0.00 63 1013.3
20260904110025 21 262 12.9 29.0 0.00 0.00 0.00 64 1013.3
20260904105523 21 282 12.9 30.6 0.00 0.00 0.00 64 1013.4
20260904105022 21 286 12.9 38.6 0.00 0.00 0.00 65 1013.5
20260904104519 21 268 16.1 29.0 0.00 0.00 0.00 66 1013.6
20260904104018 21 262 8.0 22.5 0.00 0.00 0.00 66 1013.5
20260904103516 21 281 9.7 22.5 0.00 0.00 0.00 66 1013.5
20260904103034 21 281 11.3 33.8 0.00 0.00 0.00 66 1013.5
20260904102532 21 276 11.3 22.5 0.00 0.00 0.00 66 1013.7
20260904102030 21 252 12.9 29.0 0.00 0.00 0.00 66 1013.7
20260904101528 21 280 11.3 25.7 0.00 0.00 0.00 67 1013.7
20260904101026 20 267 11.3 22.5 0.00 0.00 0.00 67 1013.7
20260904100525 20 283 9.7 24.1 0.00 0.00 0.00 68 1013.7
20260904100023 20 271 8.0 22.5 0.00 0.00 0.00 68 1013.7
20260904095521 20 280 9.7 24.1 0.00 0.00 0.00 68 1013.7
20260904095019 20 278 14.5 33.8 0.00 0.00 0.00 68 1013.8
20260904094517 20 271 12.9 30.6 0.00 0.00 0.00 68 1013.8
20260904094047 20 278 12.9 33.8 0.00 0.00 0.00 68 1014.0
20260904094015 20 278 12.9 33.8 0.00 0.00 0.00 68 1014.0
20260904093534 20 270 12.9 22.5 0.00 0.00 0.00 69 1013.9
20260904093032 20 279 11.3 29.0 0.00 0.00 0.00 69 1014.0
20260904092530 20 280 11.3 29.0 0.00 0.00 0.00 70 1013.9
20260904092028 20 286 8.0 20.9 0.00 0.00 0.00 71 1013.9
20260904091526 20 278 8.0 20.9 0.00 0.00 0.00 72 1014.0
20260904091024 19 284 6.4 20.9 0.00 0.00 0.00 71 1014.0
20260904090523 19 289 11.3 22.5 0.00 0.00 0.00 71 1014.1
20260904090021 19 272 9.7 20.9 0.00 0.00 0.00 71 1014.1
20260904085520 19 272 9.7 24.1 0.00 0.00 0.00 72 1014.2
20260904085048 19 265 8.0 24.1 0.00 0.00 0.00 72 1014.2
20260904085017 19 265 8.0 24.1 0.00 0.00 0.00 72 1014.2
20260904084535 19 277 6.4 20.9 0.00 0.00 0.00 73 1014.3
20260904084033 19 298 4.8 11.3 0.00 0.00 0.00 73 1014.2
20260904083531 19 277 6.4 16.1 0.00 0.00 0.00 73 1014.2
20260904083030 19 267 6.4 14.5 0.00 0.00 0.00 73 1014.1
20260904082528 19 274 11.3 17.7 0.00 0.00 0.00 73 1014.2
20260904082026 19 290 8.0 14.5 0.00 0.00 0.00 74 1014.5
20260904081524 18 271 9.7 17.7 0.00 0.00 0.00 74 1014.5
20260904081022 18 268 8.0 16.1 0.00 0.00 0.00 74 1014.4
20260904080520 18 269 9.7 20.9 0.00 0.00 0.00 73 1014.4
20260904080019 18 270 9.7 22.5 0.00 0.00 0.00 73 1014.2
20260904075517 18 268 9.7 25.7 0.00 0.00 0.00 73 1014.2
20260904075035 18 277 12.9 25.7 0.00 0.00 0.00 74 1014.1
20260904074533 18 275 9.7 20.9 0.00 0.00 0.00 75 1014.1
20260904074031 18 278 9.7 22.5 0.00 0.00 0.00 75 1014.2
20260904073529 18 270 11.3 35.4 0.00 0.00 0.00 75 1014.2
20260904073028 18 267 9.7 20.9 0.00 0.00 0.00 75 1014.2
20260904072526 18 270 11.3 22.5 0.00 0.00 0.00 75 1014.0
20260904072024 18 274 9.7 22.5 0.00 0.00 0.00 76 1014.0
20260904071522 18 267 8.0 20.9 0.00 0.00 0.00 76 1014.1
20260904071020 17 282 9.7 24.1 0.00 0.00 0.00 77 1014.2
20260904070518 17 292 8.0 20.9 0.00 0.00 0.00 77 1014.2
20260904070016 17 280 9.7 16.1 0.00 0.00 0.00 77 1014.3
20260904065535 17 275 9.7 20.9 0.00 0.00 0.00 77 1014.4
20260904065033 17 286 8.0 17.7 0.00 0.00 0.00 77 1014.4
20260904064531 17 287 8.0 22.5 0.00 0.00 0.00 77 1014.4
20260904064029 17 278 9.7 25.7 0.00 0.00 0.00 77 1014.4
20260904063527 17 269 8.0 17.7 0.00 0.00 0.00 76 1014.5
20260904063025 17 295 6.4 16.1 0.00 0.00 0.00 76 1014.5
20260904062523 17 283 8.0 20.9 0.00 0.00 0.00 76 1014.5
20260904062021 17 271 6.4 12.9 0.00 0.00 0.00 76 1014.5
20260904061520 17 279 8.0 17.7 0.00 0.00 0.00 76 1014.3
20260904061049 17 276 8.0 16.1 0.00 0.00 0.00 76 1014.4
20260904061017 17 276 8.0 16.1 0.00 0.00 0.00 76 1014.4
20260904060535 17 286 6.4 12.9 0.00 0.00 0.00 76 1014.4
20260904060034 17 274 8.0 22.5 0.00 0.00 0.00 76 1014.2
20260904055531 17 261 9.7 20.9 0.00 0.00 0.00 76 1014.2
20260904055029 17 292 11.3 24.1 0.00 0.00 0.00 76 1014.2
20260904054527 17 276 8.0 20.9 0.00 0.00 0.00 76 1014.3
20260904054024 17 282 8.0 12.9 0.00 0.00 0.00 75 1014.2
20260904053523 17 268 6.4 17.7 0.00 0.00 0.00 75 1014.1
20260904053021 17 264 6.4 14.5 0.00 0.00 0.00 75 1014.1
20260904052519 17 262 8.0 22.5 0.00 0.00 0.00 75 1014.2
20260904052017 17 275 6.4 22.5 0.00 0.00 0.00 75 1014.1
20260904051535 17 271 4.8 14.5 0.00 0.00 0.00 74 1014.2
20260904051033 17 269 8.0 14.5 0.00 0.00 0.00 75 1014.1
20260904050532 17 280 4.8 11.3 0.00 0.00 0.00 74 1014.2
20260904050030 17 280 6.4 14.5 0.00 0.00 0.00 75 1014.3
20260904045527 17 276 4.8 16.1 0.00 0.00 0.00 74 1014.2
20260904045026 17 292 6.4 14.5 0.00 0.00 0.00 74 1014.2
20260904044524 17 275 6.4 17.7 0.00 0.00 0.00 74 1014.4